| time (UTC) | temp F | wind direction | speed knots | gust knots | rain 1hr in | rain 24hr in | rain mn in | humidity % | barometer mb |
| 20260508141251 | 50 | 227 | 0.0 | 3.5 | 0.00 | 0.00 | 0.00 | 87 | 1016.0 |
| 20260508140252 | 49 | 238 | 0.0 | 2.6 | 0.00 | 0.00 | 0.00 | 87 | 1016.1 |
| 20260508135752 | 48 | 254 | 0.0 | 0.9 | 0.00 | 0.00 | 0.00 | 88 | 1016.2 |
| 20260508135245 | 48 | 255 | 0.0 | 2.6 | 0.00 | 0.00 | 0.00 | 88 | 1016.5 |
| 20260508134739 | 48 | 255 | 0.0 | 2.6 | 0.00 | 0.00 | 0.00 | 88 | 1016.4 |
| 20260508134233 | 47 | 53 | 0.0 | 1.7 | 0.00 | 0.00 | 0.00 | 88 | 1016.4 |
| 20260508133728 | 47 | 53 | 0.0 | 0.9 | 0.00 | 0.00 | 0.00 | 88 | 1016.5 |
| 20260508133218 | 46 | 53 | 0.0 | 0.0 | 0.00 | 0.00 | 0.00 | 88 | 1016.5 |
| 20260508132717 | 46 | 0 | 0.0 | 0.0 | 0.00 | 0.00 | 0.00 | 88 | 1016.5 |
| 20260508132210 | 46 | 53 | 0.0 | 0.0 | 0.00 | 0.00 | 0.00 | 87 | 1016.5 |
| 20260508131703 | 45 | 53 | 0.0 | 0.0 | 0.00 | 0.00 | 0.00 | 87 | 1016.4 |
| 20260508130146 | 45 | 53 | 0.0 | 0.0 | 0.00 | 0.00 | 0.00 | 87 | 1016.4 |
| 20260508125641 | 44 | 53 | 0.0 | 0.0 | 0.00 | 0.00 | 0.00 | 87 | 1016.4 |
| 20260508125133 | 44 | 53 | 0.0 | 0.0 | 0.00 | 0.00 | 0.00 | 87 | 1016.5 |
| 20260508124628 | 44 | 53 | 0.0 | 0.0 | 0.00 | 0.00 | 0.00 | 87 | 1016.5 |
| 20260508124122 | 44 | 53 | 0.0 | 0.0 | 0.00 | 0.00 | 0.00 | 87 | 1016.5 |
| 20260508123616 | 44 | 53 | 0.0 | 0.0 | 0.00 | 0.00 | 0.00 | 86 | 1016.6 |
| 20260508123110 | 43 | 53 | 0.0 | 0.0 | 0.00 | 0.00 | 0.00 | 86 | 1016.5 |
| 20260508122604 | 43 | 53 | 0.0 | 0.0 | 0.00 | 0.00 | 0.00 | 86 | 1016.4 |
| 20260508122058 | 43 | 53 | 0.0 | 0.0 | 0.00 | 0.00 | 0.00 | 86 | 1016.2 |
| 20260508121553 | 43 | 53 | 0.0 | 0.0 | 0.00 | 0.00 | 0.00 | 85 | 1016.0 |
| 20260508121045 | 42 | 53 | 0.0 | 0.0 | 0.00 | 0.00 | 0.00 | 85 | 1016.0 |
| 20260508120033 | 42 | 53 | 0.0 | 0.0 | 0.00 | 0.00 | 0.00 | 85 | 1015.5 |
| 20260508115527 | 42 | 53 | 0.0 | 0.0 | 0.00 | 0.00 | 0.00 | 85 | 1015.4 |
| 20260508115021 | 42 | 53 | 0.0 | 0.0 | 0.00 | 0.00 | 0.00 | 85 | 1015.3 |
| 20260508114515 | 42 | 53 | 0.0 | 0.0 | 0.00 | 0.00 | 0.00 | 84 | 1015.1 |
| 20260508114009 | 42 | 53 | 0.0 | 0.0 | 0.00 | 0.00 | 0.00 | 84 | 1015.1 |
| 20260508113504 | 42 | 53 | 0.0 | 0.0 | 0.00 | 0.00 | 0.00 | 84 | 1015.1 |
| 20260508112959 | 42 | 53 | 0.0 | 0.0 | 0.00 | 0.00 | 0.00 | 84 | 1015.1 |
| 20260508112451 | 42 | 53 | 0.0 | 0.0 | 0.00 | 0.00 | 0.00 | 84 | 1015.0 |
| 20260508111945 | 43 | 53 | 0.0 | 0.0 | 0.00 | 0.00 | 0.00 | 84 | 1014.7 |
| 20260508111439 | 43 | 53 | 0.0 | 0.0 | 0.00 | 0.00 | 0.00 | 84 | 1014.8 |
| 20260508110934 | 43 | 53 | 0.0 | 0.0 | 0.00 | 0.00 | 0.00 | 84 | 1014.7 |
| 20260508110429 | 43 | 53 | 0.0 | 0.0 | 0.00 | 0.00 | 0.00 | 84 | 1014.7 |
| 20260508105921 | 43 | 53 | 0.0 | 0.0 | 0.00 | 0.00 | 0.00 | 84 | 1015.0 |
| 20260508105415 | 43 | 53 | 0.0 | 0.0 | 0.00 | 0.00 | 0.00 | 84 | 1015.0 |
| 20260508104909 | 43 | 53 | 0.0 | 0.0 | 0.00 | 0.00 | 0.00 | 84 | 1014.7 |
| 20260508104403 | 43 | 53 | 0.0 | 0.0 | 0.00 | 0.00 | 0.00 | 84 | 1014.8 |
| 20260508103858 | 43 | 53 | 0.0 | 0.0 | 0.00 | 0.00 | 0.00 | 84 | 1015.0 |
| 20260508103353 | 44 | 53 | 0.0 | 0.0 | 0.00 | 0.00 | 0.00 | 84 | 1014.7 |
| 20260508102845 | 44 | 53 | 0.0 | 0.0 | 0.00 | 0.00 | 0.00 | 84 | 1014.7 |
| 20260508102339 | 44 | 53 | 0.0 | 0.0 | 0.00 | 0.00 | 0.00 | 84 | 1014.8 |
| 20260508101833 | 44 | 53 | 0.0 | 0.0 | 0.00 | 0.00 | 0.00 | 84 | 1014.7 |
| 20260508101328 | 44 | 53 | 0.0 | 0.0 | 0.00 | 0.00 | 0.00 | 84 | 1015.0 |
| 20260508100820 | 44 | 53 | 0.0 | 0.0 | 0.00 | 0.00 | 0.00 | 84 | 1014.8 |
| 20260508100319 | 44 | 53 | 0.0 | 0.0 | 0.00 | 0.00 | 0.00 | 83 | 1014.6 |
| 20260508095805 | 45 | 53 | 0.0 | 0.9 | 0.00 | 0.00 | 0.00 | 83 | 1014.0 |
| 20260508095259 | 45 | 53 | 0.0 | 0.9 | 0.00 | 0.00 | 0.00 | 83 | 1013.9 |
| 20260508094754 | 45 | 53 | 0.0 | 0.9 | 0.00 | 0.00 | 0.00 | 83 | 1013.7 |
| 20260508092225 | 46 | 53 | 0.0 | 0.0 | 0.00 | 0.00 | 0.00 | 81 | 1013.8 |
| 20260508091717 | 46 | 53 | 0.0 | 0.0 | 0.00 | 0.00 | 0.00 | 81 | 1013.9 |
| 20260508091211 | 46 | 53 | 0.0 | 0.0 | 0.00 | 0.00 | 0.00 | 81 | 1013.8 |
| 20260508090705 | 46 | 53 | 0.0 | 0.0 | 0.00 | 0.00 | 0.00 | 81 | 1013.9 |
| 20260508090200 | 46 | 53 | 0.0 | 0.0 | 0.00 | 0.00 | 0.00 | 81 | 1013.9 |
| 20260508085652 | 46 | 53 | 0.0 | 0.0 | 0.00 | 0.00 | 0.00 | 81 | 1013.9 |
| 20260508085144 | 47 | 53 | 0.0 | 0.0 | 0.00 | 0.00 | 0.00 | 81 | 1014.0 |
| 20260508084638 | 47 | 53 | 0.0 | 0.0 | 0.00 | 0.00 | 0.00 | 80 | 1014.1 |
| 20260508084133 | 47 | 53 | 0.0 | 0.9 | 0.00 | 0.00 | 0.00 | 80 | 1014.4 |
| 20260508083626 | 47 | 53 | 0.0 | 0.9 | 0.00 | 0.00 | 0.00 | 80 | 1014.3 |
| 20260508083129 | 47 | 53 | 0.0 | 0.0 | 0.00 | 0.00 | 0.00 | 79 | 1014.5 |
| 20260508081603 | 48 | 53 | 0.0 | 0.0 | 0.00 | 0.00 | 0.00 | 79 | 1014.8 |
| 20260508081055 | 48 | 53 | 0.0 | 0.0 | 0.00 | 0.00 | 0.00 | 79 | 1014.8 |
| 20260508080549 | 48 | 53 | 0.0 | 0.0 | 0.00 | 0.00 | 0.00 | 78 | 1015.0 |
| 20260508080043 | 49 | 53 | 0.0 | 0.0 | 0.00 | 0.00 | 0.00 | 78 | 1015.0 |
| 20260508075537 | 49 | 53 | 0.0 | 0.0 | 0.00 | 0.00 | 0.00 | 77 | 1015.0 |
| 20260508075033 | 49 | 53 | 0.0 | 0.0 | 0.00 | 0.00 | 0.00 | 77 | 1014.8 |
| 20260508074526 | 49 | 53 | 0.0 | 0.0 | 0.00 | 0.00 | 0.00 | 77 | 1014.7 |
| 20260508074019 | 50 | 53 | 0.0 | 0.0 | 0.00 | 0.00 | 0.00 | 76 | 1014.8 |
| 20260508073513 | 50 | 53 | 0.0 | 0.0 | 0.00 | 0.00 | 0.00 | 76 | 1014.7 |
| 20260508073009 | 50 | 53 | 0.0 | 0.0 | 0.00 | 0.00 | 0.00 | 76 | 1014.8 |
| 20260508072502 | 50 | 53 | 0.0 | 0.0 | 0.00 | 0.00 | 0.00 | 75 | 1015.0 |
| 20260508071954 | 51 | 53 | 0.0 | 0.0 | 0.00 | 0.00 | 0.00 | 75 | 1014.8 |
| 20260508070940 | 51 | 53 | 0.0 | 0.0 | 0.00 | 0.00 | 0.00 | 74 | 1014.6 |
| 20260508070435 | 52 | 53 | 0.0 | 0.0 | 0.00 | 0.00 | 0.00 | 74 | 1014.5 |
| 20260508065929 | 52 | 53 | 0.0 | 0.0 | 0.00 | 0.00 | 0.00 | 73 | 1014.4 |
| 20260508065423 | 52 | 53 | 0.0 | 0.0 | 0.00 | 0.00 | 0.00 | 72 | 1014.3 |
| 20260508064916 | 52 | 53 | 0.0 | 0.0 | 0.00 | 0.00 | 0.00 | 72 | 1014.1 |
| 20260508064411 | 53 | 53 | 0.0 | 0.0 | 0.00 | 0.00 | 0.00 | 72 | 1014.1 |
| 20260508063910 | 53 | 53 | 0.0 | 0.0 | 0.00 | 0.00 | 0.00 | 71 | 1014.1 |
| 20260508062909 | 53 | 53 | 0.0 | 2.6 | 0.00 | 0.00 | 0.00 | 70 | 1014.1 |
| 20260508062409 | 53 | 52 | 0.0 | 0.0 | 0.00 | 0.00 | 0.00 | 69 | 1014.3 |
| 20260508061908 | 54 | 52 | 0.0 | 0.0 | 0.00 | 0.00 | 0.00 | 68 | 1014.1 |
| 20260508060909 | 54 | 0 | 0.0 | 0.0 | 0.00 | 0.00 | 0.00 | 67 | 1014.3 |
| 20260508060409 | 53 | 0 | 0.0 | 2.6 | 0.00 | 0.00 | 0.00 | 66 | 1014.8 |
| 20260508055912 | 54 | 0 | 0.0 | 2.6 | 0.00 | 0.00 | 0.00 | 65 | 1015.5 |
| 20260508054353 | 54 | 0 | 0.0 | 0.0 | 0.00 | 0.00 | 0.00 | 63 | 1014.5 |
| 20260508052330 | 54 | 0 | 0.0 | 0.0 | 0.00 | 0.00 | 0.00 | 63 | 1013.8 |
| 20260508051823 | 54 | 101 | 0.0 | 0.0 | 0.00 | 0.00 | 0.00 | 63 | 1013.6 |
| 20260508051317 | 54 | 101 | 0.0 | 0.0 | 0.00 | 0.00 | 0.00 | 62 | 1013.6 |
| 20260508050811 | 54 | 101 | 0.0 | 1.7 | 0.00 | 0.00 | 0.00 | 62 | 1013.4 |
| 20260508050306 | 54 | 101 | 0.0 | 1.7 | 0.00 | 0.00 | 0.00 | 62 | 1013.7 |
| 20260508045253 | 55 | 101 | 0.0 | 0.0 | 0.00 | 0.00 | 0.00 | 61 | 1013.6 |
| 20260508044747 | 55 | 101 | 0.0 | 0.0 | 0.00 | 0.00 | 0.00 | 61 | 1013.6 |
| 20260508044241 | 55 | 101 | 0.0 | 0.0 | 0.00 | 0.00 | 0.00 | 61 | 1013.8 |
| 20260508043737 | 55 | 101 | 0.0 | 0.0 | 0.00 | 0.00 | 0.00 | 60 | 1013.7 |
| 20260508043230 | 55 | 101 | 0.0 | 0.0 | 0.00 | 0.00 | 0.00 | 60 | 1013.7 |
| 20260508042723 | 55 | 101 | 0.0 | 0.0 | 0.00 | 0.00 | 0.00 | 59 | 1014.0 |
| 20260508042218 | 56 | 101 | 0.0 | 0.0 | 0.00 | 0.00 | 0.00 | 59 | 1014.1 |
| 20260508041711 | 56 | 101 | 0.0 | 0.0 | 0.00 | 0.00 | 0.00 | 58 | 1014.0 |
| 20260508041206 | 56 | 101 | 0.0 | 0.0 | 0.00 | 0.00 | 0.00 | 58 | 1013.7 |
| 20260508040700 | 56 | 102 | 0.0 | 0.0 | 0.00 | 0.00 | 0.00 | 57 | 1013.6 |
| 20260508040154 | 57 | 102 | 0.0 | 0.0 | 0.00 | 0.00 | 0.00 | 57 | 1013.3 |
| 20260508034636 | 58 | 102 | 0.0 | 0.9 | 0.00 | 0.00 | 0.00 | 54 | 1013.3 |
| 20260508034130 | 58 | 101 | 0.0 | 0.9 | 0.00 | 0.00 | 0.00 | 53 | 1013.6 |
| 20260508033624 | 58 | 101 | 0.0 | 0.0 | 0.00 | 0.00 | 0.00 | 53 | 1013.6 |
| 20260508033118 | 59 | 101 | 0.0 | 0.0 | 0.00 | 0.00 | 0.00 | 51 | 1013.6 |
| 20260508032612 | 59 | 101 | 0.0 | 3.5 | 0.00 | 0.00 | 0.00 | 50 | 1013.7 |
| 20260508032105 | 59 | 101 | 0.9 | 4.3 | 0.00 | 0.00 | 0.00 | 49 | 1013.4 |
| 20260508031600 | 59 | 101 | 0.9 | 4.3 | 0.00 | 0.00 | 0.00 | 48 | 1013.2 |
| 20260508031053 | 60 | 72 | 0.0 | 0.0 | 0.00 | 0.00 | 0.00 | 47 | 1013.1 |
| 20260508030548 | 60 | 346 | 0.0 | 0.0 | 0.00 | 0.00 | 0.00 | 47 | 1013.0 |
| 20260508030042 | 60 | 344 | 0.0 | 0.0 | 0.00 | 0.00 | 0.00 | 47 | 1013.0 |
| 20260508025535 | 60 | 340 | 0.0 | 0.0 | 0.00 | 0.00 | 0.00 | 45 | 1012.9 |
| 20260508025029 | 61 | 340 | 0.0 | 0.0 | 0.00 | 0.00 | 0.00 | 44 | 1012.7 |
| 20260508024523 | 61 | 340 | 0.0 | 0.0 | 0.00 | 0.00 | 0.00 | 44 | 1012.7 |
| 20260508024018 | 61 | 340 | 0.0 | 0.0 | 0.00 | 0.00 | 0.00 | 43 | 1012.6 |
| 20260508023015 | 61 | 340 | 0.0 | 0.0 | 0.00 | 0.00 | 0.00 | 43 | 1012.5 |
| 20260508022516 | 62 | 340 | 0.0 | 0.0 | 0.00 | 0.00 | 0.00 | 42 | 1012.3 |
| 20260508022015 | 62 | 340 | 0.0 | 0.0 | 0.00 | 0.00 | 0.00 | 42 | 1012.2 |
| 20260508021515 | 62 | 340 | 0.0 | 0.0 | 0.00 | 0.00 | 0.00 | 42 | 1012.0 |
| 20260508021012 | 62 | 340 | 0.0 | 0.0 | 0.00 | 0.00 | 0.00 | 41 | 1012.2 |
| 20260508020511 | 62 | 340 | 0.0 | 3.5 | 0.00 | 0.00 | 0.00 | 41 | 1012.3 |
| 20260508020011 | 62 | 340 | 0.9 | 4.3 | 0.00 | 0.00 | 0.00 | 40 | 1012.3 |
| 20260508015510 | 63 | 355 | 0.9 | 4.3 | 0.00 | 0.00 | 0.00 | 40 | 1012.3 |
| 20260508015012 | 63 | 22 | 0.0 | 0.0 | 0.00 | 0.00 | 0.00 | 40 | 1012.3 |
| 20260508014012 | 64 | 36 | 0.9 | 4.3 | 0.00 | 0.00 | 0.00 | 38 | 1011.9 |
| 20260508013507 | 64 | 26 | 0.0 | 4.3 | 0.00 | 0.00 | 0.00 | 38 | 1011.7 |
| 20260508013010 | 64 | 94 | 0.0 | 2.6 | 0.00 | 0.00 | 0.00 | 37 | 1011.6 |
| 20260508012507 | 65 | 96 | 0.9 | 3.5 | 0.00 | 0.00 | 0.00 | 37 | 1011.6 |
| 20260508012007 | 65 | 69 | 1.7 | 7.0 | 0.00 | 0.00 | 0.00 | 36 | 1011.5 |
| 20260508010507 | 67 | 342 | 0.0 | 1.7 | 0.00 | 0.00 | 0.00 | 32 | 1011.1 |
| 20260508010007 | 67 | 342 | 0.0 | 1.7 | 0.00 | 0.00 | 0.00 | 31 | 1011.0 |
| 20260508005506 | 68 | 342 | 0.0 | 0.0 | 0.00 | 0.00 | 0.00 | 31 | 1010.9 |
| 20260508005003 | 68 | 342 | 0.0 | 0.0 | 0.00 | 0.00 | 0.00 | 31 | 1010.9 |
| 20260508004502 | 68 | 342 | 0.0 | 0.0 | 0.00 | 0.00 | 0.00 | 30 | 1010.8 |
| 20260508004002 | 68 | 342 | 0.0 | 0.0 | 0.00 | 0.00 | 0.00 | 30 | 1010.8 |
| 20260508003503 | 68 | 342 | 0.0 | 1.7 | 0.00 | 0.00 | 0.00 | 30 | 1010.8 |
| 20260508003002 | 68 | 342 | 0.0 | 1.7 | 0.00 | 0.00 | 0.00 | 29 | 1010.6 |
| 20260508002502 | 68 | 342 | 0.0 | 0.0 | 0.00 | 0.00 | 0.00 | 30 | 1010.8 |
| 20260508002004 | 68 | 342 | 0.0 | 0.0 | 0.00 | 0.00 | 0.00 | 29 | 1010.6 |
| 20260508001003 | 68 | 342 | 0.0 | 0.0 | 0.00 | 0.00 | 0.00 | 28 | 1010.6 |
| 20260508000457 | 68 | 342 | 0.0 | 0.0 | 0.00 | 0.00 | 0.00 | 29 | 1010.6 |
| 20260507235951 | 68 | 342 | 0.0 | 0.0 | 0.00 | 0.00 | 0.00 | 29 | 1010.8 |
| 20260507235444 | 68 | 342 | 0.0 | 0.0 | 0.00 | 0.00 | 0.00 | 29 | 1010.6 |
| 20260507234938 | 69 | 342 | 0.0 | 3.5 | 0.00 | 0.00 | 0.00 | 28 | 1010.8 |
| 20260507233931 | 69 | 341 | 0.0 | 2.6 | 0.00 | 0.00 | 0.00 | 26 | 1010.6 |
| 20260507232426 | 69 | 277 | 0.9 | 2.6 | 0.00 | 0.00 | 0.00 | 26 | 1010.8 |
| 20260507231926 | 69 | 277 | 0.9 | 4.3 | 0.00 | 0.00 | 0.00 | 26 | 1010.8 |
| 20260507231422 | 69 | 297 | 1.7 | 4.3 | 0.00 | 0.00 | 0.00 | 26 | 1010.8 |
| 20260507230422 | 70 | 293 | 1.7 | 5.2 | 0.00 | 0.00 | 0.00 | 24 | 1011.0 |
| 20260507225922 | 70 | 308 | 0.0 | 4.3 | 0.00 | 0.00 | 0.00 | 24 | 1011.0 |
| 20260507225423 | 71 | 330 | 0.0 | 4.3 | 0.00 | 0.00 | 0.00 | 24 | 1011.0 |
| 20260507224420 | 72 | 294 | 1.7 | 6.1 | 0.00 | 0.00 | 0.00 | 23 | 1011.0 |
| 20260507223918 | 72 | 259 | 2.6 | 10.4 | 0.00 | 0.00 | 0.00 | 24 | 1011.1 |
| 20260507222418 | 72 | 313 | 2.6 | 9.6 | 0.00 | 0.00 | 0.00 | 23 | 1011.1 |
| 20260507221918 | 73 | 278 | 2.6 | 7.0 | 0.00 | 0.00 | 0.00 | 24 | 1011.1 |
| 20260507221416 | 72 | 200 | 2.6 | 7.0 | 0.00 | 0.00 | 0.00 | 24 | 1011.2 |
| 20260507220411 | 72 | 230 | 3.5 | 7.8 | 0.00 | 0.00 | 0.00 | 25 | 1011.2 |
| 20260507215400 | 71 | 355 | 1.7 | 7.0 | 0.00 | 0.00 | 0.00 | 26 | 1011.5 |
| 20260507214854 | 69 | 257 | 1.7 | 6.1 | 0.00 | 0.00 | 0.00 | 27 | 1011.6 |
| 20260507214348 | 69 | 244 | 2.6 | 9.6 | 0.00 | 0.00 | 0.00 | 27 | 1011.7 |
| 20260507213842 | 69 | 216 | 2.6 | 9.6 | 0.00 | 0.00 | 0.00 | 25 | 1011.8 |
| 20260507212830 | 71 | 225 | 3.5 | 9.6 | 0.00 | 0.00 | 0.00 | 25 | 1011.9 |
| 20260507212324 | 71 | 254 | 3.5 | 10.4 | 0.00 | 0.00 | 0.00 | 25 | 1011.9 |
| 20260507211818 | 72 | 291 | 3.5 | 10.4 | 0.00 | 0.00 | 0.00 | 26 | 1012.0 |
| 20260507211312 | 72 | 280 | 3.5 | 8.7 | 0.00 | 0.00 | 0.00 | 24 | 1012.0 |
| 20260507210806 | 72 | 247 | 3.5 | 8.7 | 0.00 | 0.00 | 0.00 | 26 | 1012.2 |
| 20260507210300 | 72 | 263 | 3.5 | 9.6 | 0.00 | 0.00 | 0.00 | 25 | 1012.2 |
| 20260507205755 | 71 | 296 | 3.5 | 10.4 | 0.00 | 0.00 | 0.00 | 26 | 1012.2 |
| 20260507205248 | 72 | 223 | 3.5 | 10.4 | 0.00 | 0.00 | 0.00 | 25 | 1012.3 |
| 20260507204742 | 71 | 355 | 3.5 | 9.6 | 0.00 | 0.00 | 0.00 | 27 | 1012.3 |
| 20260507204236 | 71 | 254 | 3.5 | 9.6 | 0.00 | 0.00 | 0.00 | 26 | 1012.4 |
| 20260507203731 | 71 | 306 | 3.5 | 9.6 | 0.00 | 0.00 | 0.00 | 25 | 1012.4 |
| 20260507203224 | 70 | 234 | 3.5 | 7.8 | 0.00 | 0.00 | 0.00 | 25 | 1012.5 |
| 20260507202718 | 71 | 9 | 3.5 | 9.6 | 0.00 | 0.00 | 0.00 | 26 | 1012.6 |
| 20260507202212 | 71 | 197 | 2.6 | 9.6 | 0.00 | 0.00 | 0.00 | 26 | 1012.6 |
| 20260507201708 | 70 | 9 | 2.6 | 7.8 | 0.00 | 0.00 | 0.00 | 28 | 1012.7 |
| 20260507201200 | 70 | 80 | 3.5 | 10.4 | 0.00 | 0.00 | 0.00 | 26 | 1012.9 |
| 20260507200655 | 70 | 259 | 3.5 | 10.4 | 0.00 | 0.00 | 0.00 | 27 | 1012.9 |
| 20260507200148 | 69 | 251 | 2.6 | 8.7 | 0.00 | 0.00 | 0.00 | 27 | 1012.9 |
| 20260507195642 | 69 | 5 | 2.6 | 9.6 | 0.00 | 0.00 | 0.00 | 28 | 1013.1 |
| 20260507195136 | 68 | 336 | 3.5 | 9.6 | 0.00 | 0.00 | 0.00 | 28 | 1013.2 |
| 20260507194630 | 69 | 226 | 3.5 | 9.6 | 0.00 | 0.00 | 0.00 | 28 | 1013.2 |
| 20260507194125 | 68 | 249 | 3.5 | 9.6 | 0.00 | 0.00 | 0.00 | 28 | 1013.2 |
| 20260507193618 | 68 | 273 | 3.5 | 8.7 | 0.00 | 0.00 | 0.00 | 30 | 1013.2 |
| 20260507193112 | 67 | 250 | 3.5 | 9.6 | 0.00 | 0.00 | 0.00 | 29 | 1013.1 |
| 20260507192606 | 67 | 246 | 4.3 | 13.0 | 0.00 | 0.00 | 0.00 | 31 | 1013.1 |
| 20260507192100 | 67 | 214 | 3.5 | 13.0 | 0.00 | 0.00 | 0.00 | 29 | 1013.2 |
| 20260507191554 | 67 | 334 | 2.6 | 9.6 | 0.00 | 0.00 | 0.00 | 30 | 1013.2 |
| 20260507191047 | 67 | 245 | 2.6 | 8.7 | 0.00 | 0.00 | 0.00 | 31 | 1013.4 |
| 20260507190541 | 67 | 36 | 2.6 | 8.7 | 0.00 | 0.00 | 0.00 | 30 | 1013.6 |
| 20260507190037 | 66 | 257 | 2.6 | 9.6 | 0.00 | 0.00 | 0.00 | 30 | 1013.6 |
| 20260507185531 | 66 | 217 | 1.7 | 10.4 | 0.00 | 0.00 | 0.00 | 30 | 1013.7 |
| 20260507185024 | 66 | 127 | 1.7 | 10.4 | 0.00 | 0.00 | 0.00 | 33 | 1013.8 |
| 20260507184519 | 66 | 242 | 1.7 | 4.3 | 0.00 | 0.00 | 0.00 | 34 | 1013.8 |
| 20260507184012 | 65 | 279 | 2.6 | 6.1 | 0.00 | 0.00 | 0.00 | 33 | 1013.8 |
| 20260507183505 | 65 | 336 | 2.6 | 6.1 | 0.00 | 0.00 | 0.00 | 33 | 1013.9 |
| 20260507183001 | 65 | 286 | 2.6 | 9.6 | 0.00 | 0.00 | 0.00 | 32 | 1013.9 |
| 20260507182454 | 65 | 282 | 2.6 | 9.6 | 0.00 | 0.00 | 0.00 | 31 | 1013.9 |
| 20260507181443 | 65 | 308 | 2.6 | 7.0 | 0.00 | 0.00 | 0.00 | 33 | 1014.0 |
| 20260507180936 | 65 | 333 | 2.6 | 8.7 | 0.00 | 0.00 | 0.00 | 32 | 1014.0 |
| 20260507180431 | 65 | 220 | 2.6 | 8.7 | 0.00 | 0.00 | 0.00 | 34 | 1014.0 |
| 20260507175924 | 65 | 242 | 2.6 | 7.0 | 0.00 | 0.00 | 0.00 | 35 | 1013.9 |
| 20260507175418 | 65 | 242 | 2.6 | 7.0 | 0.00 | 0.00 | 0.00 | 35 | 1013.9 |
| 20260507174407 | 65 | 250 | 1.7 | 4.3 | 0.00 | 0.00 | 0.00 | 37 | 1014.1 |
| 20260507172851 | 64 | 243 | 1.7 | 6.1 | 0.00 | 0.00 | 0.00 | 36 | 1014.3 |
| 20260507172351 | 64 | 248 | 0.9 | 4.3 | 0.00 | 0.00 | 0.00 | 36 | 1014.4 |
| 20260507171852 | 64 | 246 | 0.9 | 4.3 | 0.00 | 0.00 | 0.00 | 38 | 1014.3 |
| 20260507171352 | 63 | 246 | 1.7 | 5.2 | 0.00 | 0.00 | 0.00 | 38 | 1014.5 |
| 20260507170852 | 63 | 244 | 1.7 | 7.0 | 0.00 | 0.00 | 0.00 | 36 | 1014.4 |
| 20260507170353 | 63 | 263 | 1.7 | 7.0 | 0.00 | 0.00 | 0.00 | 37 | 1014.4 |
| 20260507165852 | 62 | 267 | 1.7 | 7.0 | 0.00 | 0.00 | 0.00 | 36 | 1014.4 |
| 20260507165351 | 62 | 248 | 2.6 | 7.8 | 0.00 | 0.00 | 0.00 | 38 | 1014.4 |
| 20260507164848 | 62 | 254 | 2.6 | 7.8 | 0.00 | 0.00 | 0.00 | 38 | 1014.5 |
| 20260507164347 | 62 | 246 | 3.5 | 7.8 | 0.00 | 0.00 | 0.00 | 38 | 1014.5 |
| 20260507163347 | 62 | 243 | 1.7 | 5.2 | 0.00 | 0.00 | 0.00 | 38 | 1014.6 |
| 20260507162847 | 62 | 258 | 1.7 | 8.7 | 0.00 | 0.00 | 0.00 | 40 | 1014.6 |
| 20260507162350 | 61 | 261 | 2.6 | 8.7 | 0.00 | 0.00 | 0.00 | 39 | 1014.6 |
| 20260507161844 | 60 | 249 | 0.9 | 6.1 | 0.00 | 0.00 | 0.00 | 43 | 1014.7 |
| 20260507161343 | 59 | 249 | 0.9 | 4.3 | 0.00 | 0.00 | 0.00 | 46 | 1014.7 |
| 20260507160843 | 58 | 250 | 2.6 | 6.1 | 0.00 | 0.00 | 0.00 | 46 | 1014.7 |
| 20260507160343 | 58 | 265 | 1.7 | 7.0 | 0.00 | 0.00 | 0.00 | 46 | 1014.8 |
| 20260507155844 | 57 | 261 | 1.7 | 7.0 | 0.00 | 0.00 | 0.00 | 46 | 1014.8 |
| 20260507155344 | 56 | 264 | 0.9 | 6.1 | 0.00 | 0.00 | 0.00 | 47 | 1014.7 |
| 20260507154844 | 56 | 213 | 0.9 | 3.5 | 0.00 | 0.00 | 0.00 | 49 | 1014.8 |
| 20260507153340 | 54 | 261 | 1.7 | 7.0 | 0.00 | 0.00 | 0.00 | 49 | 1015.2 |
| 20260507152840 | 53 | 228 | 0.9 | 3.5 | 0.00 | 0.00 | 0.00 | 51 | 1015.2 |
| 20260507152339 | 53 | 228 | 0.9 | 3.5 | 0.00 | 0.00 | 0.00 | 52 | 1015.2 |
| 20260507151840 | 53 | 229 | 0.9 | 3.5 | 0.00 | 0.00 | 0.00 | 52 | 1015.2 |
| 20260507151339 | 52 | 228 | 0.9 | 2.6 | 0.00 | 0.00 | 0.00 | 54 | 1015.2 |
| 20260507145839 | 51 | 220 | 0.0 | 2.6 | 0.00 | 0.00 | 0.00 | 54 | 1015.3 |
| 20260507144337 | 50 | 229 | 0.9 | 3.5 | 0.00 | 0.00 | 0.00 | 55 | 1015.3 |
| 20260507143839 | 49 | 229 | 0.9 | 2.6 | 0.00 | 0.00 | 0.00 | 58 | 1015.3 |
| 20260507143339 | 49 | 229 | 0.0 | 1.7 | 0.00 | 0.00 | 0.00 | 60 | 1015.3 |
| 20260507142838 | 48 | 230 | 0.0 | 1.7 | 0.00 | 0.00 | 0.00 | 61 | 1015.2 |
| 20260507142338 | 48 | 230 | 0.0 | 0.0 | 0.00 | 0.00 | 0.00 | 63 | 1015.2 |
| 20260507141837 | 47 | 230 | 0.0 | 0.0 | 0.00 | 0.00 | 0.00 | 65 | 1015.2 |